Regional Weather Roundup
Issued by NWS Charleston, SC

Current Version | Previous Version | Graphics & Text | Print | Product List | Glossary On
Versions: 1 2 3 4 5 6 7 8 9 10 11 12 13 14 15 16 17 18 19 20 21 22 23 24 25 26 27 28 29 30 31 32 33 34 35 36 37 38 39 40 41 42 43 44 45 46 47 48 49 50
000
ASUS42 KCHS 251028
RWRCHS

REGIONAL WEATHER ROUNDUP
NATIONAL WEATHER SERVICE CHARLESTON SC
600 AM EDT SUN SEP 25 2016

NOTE: "FAIR" INDICATES FEW OR NO CLOUDS BELOW 12,000 FEET WITH NO
SIGNIFICANT WEATHER AND/OR OBSTRUCTIONS TO VISIBILITY.

NOT ALL STATIONS ARE QUALITY CONTROLLED. USE DATA WITH CAUTION...
ESPECIALLY DEWPOINT OBSERVATIONS.

SCZ027-030-031-034>040-042>050-251100-
...SOUTHEAST SOUTH CAROLINA...

CITY           SKY/WX    TMP DP  RH WIND       PRES   REMARKS
N CHARLESTON   CLEAR     71  69  93 N6        30.04R
WATERFRONT PRK   N/A     76  74  93 VRB3      30.01R
MOUNT PLEASANT FAIR      72  72 100 CALM      30.04S FOG
JOHNS ISLAND   FAIR      73  73 100 CALM      30.04R
PINOPOLIS        N/A     73  73 100 CALM      29.97R
MONCKS CORNER  FAIR      66  66 100 CALM      30.05S FOG
SUMMERVILLE    FOG       68  68 100 CALM      30.06R VSB 1/2
BEAUFORT MCAS  CLOUDY    75  73  93 N5        30.04R
BEAUFORT ARPT  CLOUDY    73  73 100 CALM      30.04R FOG
HILTON HEAD IS NOT AVBL
WALTERBORO     FOG       70  70 100 CALM      30.06S VSB 1/2
ALLENDALE      CLOUDY    68  68 100 CALM      30.06R FOG

...SOUTHERN MIDLANDS AND PEE DEE...

CITY           SKY/WX    TMP DP  RH WIND       PRES   REMARKS
GEORGETOWN     FOG       68  66  94 CALM      30.06S VSB 1/2
KINGSTREE      FOG       64  64 100 CALM      30.07R VSB 1/4
ORANGEBURG     MOCLDY    70  69  97 CALM      30.07R FOG
BARNWELL       NOT AVBL
AIKEN          FAIR      63  63 100 CALM      30.11R
MANNING        CLOUDY    64  64 100 CALM      30.07R FOG
COLUMBIA       CLEAR     67  64  90 S3        30.06R
SUMTER         CLEAR     67  65  93 N1        30.04R
FLORENCE       CLEAR     69  67  93 N3        30.08R
MYRTLE BEACH   CLEAR     72  63  73 N5        30.07S
N MYRTLE BEACH CLEAR     68  68 100 NE3       30.06R FOG

$$

GAZ063-065-086>088-099>101-113>116-118-119-134>141-150-251100-
...SOUTHEAST GEORGIA...

CITY           SKY/WX    TMP DP  RH WIND       PRES   REMARKS
SAVANNAH ARPT  PTCLDY    74  71  91 CALM      30.05R
HUNTER AAF     MOCLDY    74  74 100 NW3       30.02R
FORT STEWART   CLOUDY    73  71  94 CALM      30.02R
STATESBORO     CLOUDY    71  71 100 CALM      30.06R
SYLVANIA       NOT AVBL
CLAXTON        FAIR      70  70 100 CALM      30.05S

...CSRA...CENTRAL AND FAR SOUTHEAST GEORGIA...

CITY           SKY/WX    TMP DP  RH WIND       PRES   REMARKS
THOMSON        CLEAR     65  65 100 CALM      30.12R
AUGUSTA-BUSH   CLEAR     65  64  97 CALM      30.06R FOG
AUGUSTA-DANIEL CLEAR     71  66  84 CALM      30.07S
SWAINSBORO     FAIR      72  70  94 CALM      30.07R
VIDALIA        PTCLDY    73  73 100 CALM      30.06R
EASTMAN        FAIR      70  70 100 CALM      30.08R FOG
HAZLEHURST     PTSUNNY   73  73 100 CALM      30.05R
ALMA           CLEAR     69  69 100 CALM      30.05R FOG
WAYCROSS       PTCLDY    72  72 100 CALM      30.05R FOG
JESUP          FAIR      70  70 100 CALM      30.05R FOG
BAXLEY         MOCLDY    70  70 100 CALM      30.05R
BRUNSWICK      PTCLDY    72  72 100 CALM      30.05R FOG
SAINT SIMONS   CLEAR     73  72  96 CALM      30.03R

$$

SCZ027-028-034-036>038-045-046-048>050-GAZ119-141-251100-
...LAKE AND SUPPLEMENTAL COASTAL OBSERVATIONS...

STATION/POSITION TIME  TEMP    WIND        PRES    WAVE   SWELL
                       AIR SEA DIR/SP/G            HT/PER HT/PER/DIR
                 (UTC) (F)     (DEG/KT/KT) (MB)    (FT/S) (FT/S/D)
WINYAH BAY       0945   72     330/  4     1017.0R
LAKE MURRAY      0930   72        CALM     1017.6S
ACE BASIN NERRS  0945   74        CALM     1017.0S
FORT PULASKI     1000   76 81  310/  5/  5 1017.7
SAPELO ISLAND    1000   74        CALM     1017.0

$$

ANZ835-935-AMZ111-154-330-350-352-354-370-450-454-472-251100-
...C-MAN AND BUOY OBSERVATIONS...

STATION/POSITION TIME  TEMP    WIND        PRES    WAVE   SWELL
                       AIR SEA DIR/SP/G            HT/PER HT/PER/DIR
                 (UTC) (F)     (DEG/KT/KT) (MB)    (FT/S) (FT/S/D)
BUOY 41004       0950   80 82   40/ 12/ 14 1016.0R   3/11   3/100/11
BUOY 41008       0950   80 82  340/  6/  6 1016.4R   3/11   3/100/11
FOLLY BEACH CMAN 1000   76     360/  6/  7 1017.0R
CAPERS NEARSHORE 1008   78 81   20/ 10/ 12 1016.7R
FRIPP NEARSHORE  1008   79 81   10/  8/ 10 1017.0R


STATION/POSITION TIME  TEMP    WIND        PRES    WAVE   SWELL
                       AIR SEA DIR/SP/G            HT/PER HT/PER/DIR
                 (UTC) (F)     (DEG/KT/KT) (MB)    (FT/S) (FT/S/D)
5E ST. MARYS GA  1001      82                N/A     3/11   2/100/11
FRYING PAN BUOY  1010   81 82   50/ 12/ 16 1017.0
BUOY 41025       0950   76 85   20/ 16/ 17 1017.4R   6/11   5/120/11
CAPE LOOKOUT NC  1000   77      50/ 14/ 15 1017.9R
BUOY 41002       0950   81 83   40/  4/  6 1015.5R   4/10   3/100/10
BUOY 41010       NOT AVBL
ST AUGUSTINE FL  1000   76 84  280/  3/  4 1017.5R


$$




USA.gov is the U.S. government's official web portal to all federal, state and local government web resources and services.